DW4869 Weather Reports


Display with metric or nautical units.
time (UTC)temp
F
wind
direction
speed
MPH
gust
MPH
rain 1hr
in
rain 24hr
in
rain mn
in
humidity
%
barometer
mb
20190318133121 43 27 0.0 0.0 0.00 0.00 0.00 71 1019.5
20190318131641 41 33 0.0 0.0 0.00 0.00 0.00 76 1019.6
20190318130212 43 202 1.0 0.0 0.00 0.00 0.00 71 1019.7
20190318124718 43 65 0.0 0.0 0.00 0.00 0.00 71 1019.7
20190318123128 43 97 0.0 0.0 0.00 0.00 0.00 72 1019.7
20190318121609 42 13 0.0 0.0 0.00 0.00 0.00 72 1019.7
20190318120115 40 233 0.0 0.0 0.00 0.00 0.00 75 1019.7
20190318114559 41 233 1.0 0.0 0.00 0.00 0.00 73 1019.7
20190318113114 43 299 0.0 0.0 0.00 0.00 0.00 68 1019.7
20190318111615 44 84 0.0 0.0 0.00 0.00 0.00 67 1019.6
20190318110123 44 96 0.0 0.0 0.00 0.00 0.00 67 1019.6
20190318104612 43 84 0.0 0.0 0.00 0.00 0.00 69 1019.7
20190318103138 44 139 0.0 0.0 0.00 0.00 0.00 68 1019.9
20190318101546 45 55 0.0 0.0 0.00 0.00 0.00 65 1019.8
20190318100102 45 27 0.0 0.0 0.00 0.00 0.00 65 1019.9
20190318094602 46 42 0.0 0.0 0.00 0.00 0.00 62 1019.9
20190318093119 47 117 1.0 0.0 0.00 0.00 0.00 62 1019.8
20190318091556 46 80 1.0 0.0 0.00 0.00 0.00 63 1019.9
20190318090057 46 83 1.0 0.0 0.00 0.00 0.00 63 1020.0
20190318084542 47 49 2.0 0.0 0.00 0.00 0.00 63 1020.0
20190318083038 46 17 3.0 0.0 0.00 0.00 0.00 64 1020.1
20190318081557 45 49 2.0 0.0 0.00 0.00 0.00 65 1020.3
20190318080033 45 57 0.0 0.0 0.00 0.00 0.00 66 1020.4
20190318074527 44 74 0.0 0.0 0.00 0.00 0.00 66 1020.5
20190318073034 42 44 0.0 0.0 0.00 0.00 0.00 69 1020.8
20190318071509 42 355 0.0 0.0 0.00 0.00 0.00 69 1020.8
20190318070004 44 104 0.0 0.0 0.00 0.00 0.00 66 1020.9
20190318064520 44 236 0.0 0.0 0.00 0.00 0.00 64 1020.9
20190318063007 46 211 0.0 0.0 0.00 0.00 0.00 60 1020.9
20190318061504 46 280 0.0 0.0 0.00 0.00 0.00 60 1020.9
20190318060004 47 229 0.0 0.0 0.00 0.00 0.00 59 1020.9
20190318054842 48 28 1.0 0.0 0.00 0.00 0.00 57 1020.9
20190318053335 48 92 2.0 0.0 0.00 0.00 0.00 57 1020.9
20190318051751 49 63 2.0 0.0 0.00 0.00 0.00 57 1020.7
20190318050204 49 86 2.0 0.0 0.00 0.00 0.00 56 1020.7
20190318044704 49 326 2.0 0.0 0.00 0.00 0.00 57 1020.7
20190318043209 49 67 2.0 0.0 0.00 0.00 0.00 56 1020.7
20190318041657 50 31 0.0 0.0 0.00 0.00 0.00 55 1020.7
20190318040134 51 38 1.0 0.0 0.00 0.00 0.00 50 1020.7
20190318034638 52 51 0.0 0.0 0.00 0.00 0.00 49 1020.7
20190318033116 52 39 1.0 0.0 0.00 0.00 0.00 49 1020.6
20190318031634 53 19 1.0 0.0 0.00 0.00 0.00 47 1020.6
20190318030222 54 51 3.0 0.0 0.00 0.00 0.00 46 1020.6
20190318024628 54 33 2.0 0.0 0.00 0.00 0.00 46 1020.5
20190318023133 54 32 3.0 0.0 0.00 0.00 0.00 48 1020.5
20190318021713 55 16 3.0 0.0 0.00 0.00 0.00 46 1020.4
20190318020211 56 15 4.0 0.0 0.00 0.00 0.00 45 1020.3
20190318014711 58 22 5.0 0.0 0.00 0.00 0.00 43 1020.1
20190318013126 59 17 4.0 0.0 0.00 0.00 0.00 42 1019.7
20190318011649 60 348 5.0 0.0 0.00 0.00 0.00 41 1019.8
20190318010106 60 338 6.0 0.0 0.00 0.00 0.00 40 1019.9
20190318004604 61 20 6.0 0.0 0.00 0.00 0.00 39 1019.9
20190318003203 62 33 8.0 0.0 0.00 0.00 0.00 38 1019.9
20190318001631 63 73 7.0 0.0 0.00 0.00 0.00 38 1019.9
20190318000136 63 16 8.0 0.0 0.00 0.00 0.00 39 1020.0
20190317234651 63 24 9.0 0.0 0.00 0.00 0.00 39 1019.9
20190317233156 63 50 9.0 0.0 0.00 0.00 0.00 38 1019.9
20190317231614 63 92 9.0 0.0 0.00 0.00 0.00 38 1020.0
20190317230128 63 46 9.0 0.0 0.00 0.00 0.00 38 1020.1
20190317224636 63 69 9.0 0.0 0.00 0.00 0.00 39 1020.0
20190317223200 63 134 10.0 0.0 0.00 0.00 0.00 39 1019.9
20190317221624 63 50 10.0 0.0 0.00 0.00 0.00 39 1020.1
20190317220129 63 346 8.0 0.0 0.00 0.00 0.00 40 1020.2
20190317214621 62 69 8.0 0.0 0.00 0.00 0.00 40 1020.5
20190317213053 62 349 9.0 0.0 0.00 0.00 0.00 41 1020.7
20190317211611 62 12 7.0 0.0 0.00 0.00 0.00 41 1020.8
20190317210051 61 98 7.0 0.0 0.00 0.00 0.00 43 1021.0
20190317204636 61 49 7.0 0.0 0.00 0.00 0.00 45 1021.2
20190317203041 60 321 6.0 0.0 0.00 0.00 0.00 47 1021.4
20190317201528 59 57 8.0 0.0 0.00 0.00 0.00 47 1021.5
20190317200035 58 46 9.0 0.0 0.00 0.00 0.00 50 1021.6
20190317194552 57 50 8.0 0.0 0.00 0.00 0.00 51 1021.7
20190317193022 57 39 7.0 0.0 0.00 0.00 0.00 52 1021.8
20190317191510 56 350 5.0 0.0 0.00 0.00 0.00 54 1021.9
20190317190014 55 84 5.0 0.0 0.00 0.00 0.00 56 1022.1
20190317184506 55 49 5.0 0.0 0.00 0.00 0.00 57 1022.3
20190317183409 54 351 5.0 0.0 0.00 0.00 0.00 58 1022.4
20190317181658 53 36 5.0 0.0 0.00 0.00 0.00 60 1022.4
20190317180201 52 60 6.0 0.0 0.00 0.00 0.00 61 1022.5
20190317174730 51 101 5.0 0.0 0.00 0.00 0.00 62 1022.7
20190317173111 50 49 5.0 0.0 0.00 0.00 0.00 65 1022.7
20190317171712 49 82 4.0 0.0 0.00 0.00 0.00 67 1022.9
20190317170057 47 11 5.0 0.0 0.00 0.00 0.00 70 1022.9
20190317164602 46 67 3.0 0.0 0.00 0.00 0.00 72 1022.9
20190317163101 45 322 2.0 0.0 0.00 0.00 0.00 74 1023.0
20190317161542 44 27 2.0 0.0 0.00 0.00 0.00 76 1023.1
20190317160053 42 51 0.0 0.0 0.00 0.00 0.00 78 1022.9
20190317154546 41 38 0.0 0.0 0.00 0.00 0.00 81 1023.0
20190317153117 40 27 1.0 0.0 0.00 0.00 0.00 83 1022.9
20190317151556 39 24 0.0 0.0 0.00 0.00 0.00 85 1022.8
20190317150055 37 27 0.0 0.0 0.00 0.00 0.00 88 1022.8
20190317144545 35 67 0.0 0.0 0.00 0.00 0.00 90 1022.7
20190317143026 35 323 0.0 0.0 0.00 0.00 0.00 90 1022.6
20190317141535 34 323 0.0 0.0 0.00 0.00 0.00 91 1022.6
20190317140032 33 50 0.0 0.0 0.00 0.00 0.00 90 1022.4
20190317134527 33 51 0.0 0.0 0.00 0.00 0.00 89 1022.3